This is the latest recevied weather packets stored in our database for station/object HS5SQI-2. If no packets are shown the sender has not sent any weather packets the latest 10 day(s).
| Time | Temp. | Humidity | Pressure | Rain* | Wind** | Luminosity | Snow |
|---|---|---|---|---|---|---|---|
| 1777708276 | 36.67° C | 54% | 1004 hPa | - | - | 0 W/m² | - |
| 1777707654 | 35.56° C | 56% | 1004 hPa | - | - | 0 W/m² | - |
| 1777707032 | 36.11° C | 59% | 1004 hPa | - | - | 0 W/m² | - |
| 1777706410 | 36.67° C | 54% | 1004 hPa | - | - | 0 W/m² | - |
| 1777705789 | 38.33° C | 50% | 1004 hPa | - | - | 0 W/m² | - |
| 1777705166 | 38.89° C | 49% | 1005 hPa | - | - | 0 W/m² | - |
| 1777704544 | 38.33° C | 50% | 1005 hPa | - | - | 0 W/m² | - |
| 1777703922 | 38.33° C | 51% | 1005 hPa | - | - | 0 W/m² | - |
| 1777703300 | 37.78° C | 52% | 1005 hPa | - | - | 0 W/m² | - |
| 1777702678 | 38.33° C | 52% | 1005 hPa | - | - | 0 W/m² | - |
| 1777702056 | 38.33° C | 49% | 1005 hPa | - | - | 0 W/m² | - |
| 1777701434 | 38.89° C | 46% | 1006 hPa | - | - | 0 W/m² | - |
| 1777700812 | 39.44° C | 50% | 1006 hPa | - | - | 0 W/m² | - |
| 1777700190 | 38.89° C | 48% | 1006 hPa | - | - | 0 W/m² | - |
| 1777699568 | 38.89° C | 46% | 1006 hPa | - | - | 0 W/m² | - |
| 1777698946 | 38.89° C | 47% | 1006 hPa | - | - | 0 W/m² | - |
| 1777698324 | 38.89° C | 46% | 1006 hPa | - | - | 0 W/m² | - |
| 1777697702 | 38.89° C | 43% | 1007 hPa | - | - | 0 W/m² | - |
| 1777697079 | 39.44° C | 44% | 1007 hPa | - | - | 0 W/m² | - |
| 1777696458 | 38.33° C | 42% | 1007 hPa | - | - | 0 W/m² | - |
| 1777695836 | 37.78° C | 42% | 1007 hPa | - | - | 0 W/m² | - |
| 1777695214 | 37.22° C | 45% | 1007 hPa | - | - | 0 W/m² | - |
| 1777694592 | 37.22° C | 50% | 1007 hPa | - | - | 0 W/m² | - |
| 1777693969 | 37.22° C | 52% | 1007 hPa | - | - | 0 W/m² | - |
| 1777693348 | 36.67° C | 53% | 1007 hPa | - | - | 0 W/m² | - |
* Rain since midnight (hover to see other rain measurements)
** Current wind speed in m/s (hover to see current wind gust speed)